Weather History for Montpelier, VT

Change the Weather History Date:

Saturday, April 28, 2012

  Actual Average Record
Temperature  
Mean Temperature 36 °F 48 °F  
Max Temperature 45 °F 60 °F 90 °F (1990)
Min Temperature 27 °F 36 °F 24 °F (2006)
Degree Days  
Heating Degree Days 29 17  
Month to date heating degree days 600 644  
Since 1 July heating degree days 6466 7669  
Cooling Degree Days 0 0  
Month to date cooling degree days 5 0  
Year to date cooling degree days 5 0  
Moisture  
Dew Point 17 °F    
Average Humidity 51    
Maximum Humidity 75    
Minimum Humidity 27    
Precipitation  
Precipitation T in 0.09 in 1.11 in (1988)
Month to date precipitation 2.73 2.46  
Year to date precipitation 6.98 9.34  
Sea Level Pressure  
Sea Level Pressure 30.13 in    
Wind  
Wind Speed 10 mph (NW)    
Max Wind Speed 21 mph    
Max Gust Speed 31 mph    
Visibility 10 miles    
Events      
T = Trace of Precipitation, MM = Missing Value Source: NWS Daily Summary

Daily Weather History Graph

Daily Weather History Graph

Search for Another Location

Airport:

Trip Planner

Search our weather history database for the weather conditions in past years. The results will help you decide how hot, cold, wet, or windy it might be!

Date:

Astronomy

Apr. 28, 2012 Rise Set
Actual Time 5:45 AM EDT 7:50 PM EDT
Civil Twilight 5:13 AM EDT 8:22 PM EDT
Nautical Twilight 4:34 AM EDT 9:01 PM EDT
Astronomical Twilight 3:52 AM EDT 9:44 PM EDT
Moon 11:20 AM EDT (4/28) 1:15 AM EDT (4/28)
Length of Visible Light 15h 08m
Length of Day
14h 05m
Waxing Crescent, 42% of the Moon is Illuminated
Apr 28
Waxing Crescent
Apr 29
First Quarter
May 5
Full
May 12
Last Quarter
May 20
New

Hourly Weather History & Observations

Time (EDT) Temp. Windchill Dew Point Humidity Pressure Visibility Wind Dir Wind Speed Gust Speed Precip Events Conditions
12:51 AM 28.0 °F 17.5 °F 19.9 °F 72% 30.11 in 10.0 mi NW 12.7 mph 23.0 mph 0.00 in   Overcast
1:51 AM 27.0 °F 15.6 °F 19.9 °F 75% 30.11 in 10.0 mi WNW 13.8 mph 24.2 mph 0.00 in   Overcast
2:51 AM 27.0 °F 16.7 °F 19.9 °F 75% 30.10 in 10.0 mi NW 11.5 mph 21.9 mph N/A   Overcast
3:51 AM 27.0 °F 18.7 °F 19.0 °F 72% 30.12 in 10.0 mi NW 8.1 mph 19.6 mph N/A   Overcast
3:58 AM 26.6 °F 17.5 °F 19.4 °F 74% 30.06 in 10.0 mi NW 9.2 mph 20.7 mph N/A   Overcast
4:06 AM 26.6 °F 16.8 °F 19.4 °F 74% 30.06 in 10.0 mi WNW 10.4 mph 16.1 mph N/A   Overcast
4:51 AM 27.0 °F 15.6 °F 19.0 °F 72% 30.12 in 10.0 mi NW 13.8 mph 20.7 mph N/A   Overcast
5:51 AM 27.0 °F 14.7 °F 18.0 °F 69% 30.14 in 10.0 mi NW 16.1 mph 27.6 mph N/A   Overcast
6:51 AM 27.0 °F 16.1 °F 18.0 °F 69% 30.15 in 10.0 mi NW 12.7 mph 28.8 mph N/A   Overcast
7:51 AM 28.0 °F 17.0 °F 18.0 °F 66% 30.17 in 10.0 mi WNW 13.8 mph 23.0 mph N/A   Overcast
7:58 AM 28.4 °F 16.2 °F 17.6 °F 64% 30.12 in 10.0 mi WNW 17.3 mph 23.0 mph N/A   Overcast
8:51 AM 28.4 °F 16.6 °F 19.4 °F 69% 30.13 in 10.0 mi NW 16.1 mph 24.2 mph N/A   Overcast
9:37 AM 30.2 °F 19.8 °F 19.4 °F 64% 30.14 in 10.0 mi NW 13.8 mph 23.0 mph N/A   Overcast
9:51 AM 32.0 °F 23.0 °F 19.0 °F 59% 30.19 in 10.0 mi NW 11.5 mph 19.6 mph N/A   Mostly Cloudy
10:51 AM 35.1 °F 26.9 °F 19.9 °F 54% 30.18 in 10.0 mi NW 11.5 mph 21.9 mph N/A   Clear
11:51 AM 37.0 °F 28.5 °F 19.0 °F 48% 30.18 in 10.0 mi NW 13.8 mph 25.3 mph N/A   Clear
12:51 PM 39.0 °F 30.6 °F 17.1 °F 41% 30.16 in 10.0 mi WNW 15.0 mph 25.3 mph N/A   Clear
1:51 PM 42.1 °F 34.5 °F 16.0 °F 35% 30.15 in 10.0 mi NNW 15.0 mph 24.2 mph N/A   Clear
2:51 PM 43.0 °F 36.8 °F 15.1 °F 32% 30.14 in 10.0 mi West 11.5 mph 21.9 mph N/A   Clear
3:51 PM 44.6 °F 38.4 °F 14.0 °F 29% 30.08 in 10.0 mi North 12.7 mph 18.4 mph N/A   Clear
4:51 PM 44.1 °F 37.7 °F 12.9 °F 28% 30.12 in 10.0 mi NNW 12.7 mph 17.3 mph N/A   Clear
5:51 PM 44.1 °F 40.1 °F 14.0 °F 30% 30.12 in 10.0 mi NW 6.9 mph - N/A   Clear
6:51 PM 42.1 °F 36.1 °F 12.9 °F 31% 30.13 in 10.0 mi NW 10.4 mph 19.6 mph N/A   Clear
7:51 PM 39.0 °F 34.0 °F 12.9 °F 34% 30.14 in 10.0 mi WNW 6.9 mph 17.3 mph N/A   Clear
8:51 PM 35.6 °F 30.7 °F 14.0 °F 41% 30.12 in 10.0 mi NW 5.8 mph - N/A   Clear
9:51 PM 34.0 °F - 16.0 °F 48% 30.17 in 10.0 mi Calm Calm - N/A   Clear
10:51 PM 33.1 °F - 15.1 °F 48% 30.17 in 10.0 mi Calm Calm - N/A   Clear
11:51 PM 28.9 °F 25.2 °F 18.0 °F 64% 30.16 in 10.0 mi SSE 3.5 mph - N/A   Clear